Regional Weather Roundup
Issued by NWS

Home | Current Version | Previous Version | Text Only | Print | Product List | Glossary On
Versions: 1 2 3 4 5 6 7 8 9 10 11 12 13 14 15 16 17 18 19 20 21 22 23 24 25 26 27 28 29 30 31 32 33 34 35 36 37 38 39 40 41 42 43 44 45 46 47 48 49 50
932
ASUS43 KLSX 060107
RWRMO

WEATHER SUMMARY FOR MISSOURI
NATIONAL WEATHER SERVICE SPRINGFIELD MO
700 PM CST FRI FEB 05 2016

NOTE: "FAIR" INDICATES FEW OR NO CLOUDS BELOW 12,000 FEET WITH NO
       SIGNIFICANT WEATHER AND/OR OBSTRUCTIONS TO VISIBILITY.
       CURRENT SKY AND/OR WEATHER CONDITIONS ARE NOT AVAILABLE FOR
       CHILLICOTHE AND FARMINGTON.

MOZ001>031-035>038-043-044-053-054-060200-
...NORTHERN AND WESTERN MISSOURI...

CITY           SKY/WX    TMP DP  RH WIND       PRES   REMARKS
KANSAS CTY INT CLOUDY    36  23  59 CALM      30.28R
KANSAS C DTWN  CLOUDY    38  24  57 NE7       30.29R
LEE`S SUMMIT   CLOUDY    39  23  52 SE3       30.28F
ST JOSEPH      CLOUDY    36  24  62 SE7       30.29F
CHILLICOTHE      N/A     35  23  61 SE5       30.33S
KIRKSVILLE     MOCLDY    29  20  69 SE7       30.32F WCI  22

$$
MOZ066>068-077>081-088>096-101>105-060200-
...SOUTHWEST MISSOURI...

CITY           SKY/WX    TMP DP  RH WIND       PRES   REMARKS
SPRINGFIELD    CLOUDY    35  20  54 CALM      30.29S
JOPLIN         PTCLDY    43  20  39 CALM      30.30S

$$
MOZ032>034-039>042-045>050-055>058-069>072-060200-
...CENTRAL MISSOURI...

CITY           SKY/WX    TMP DP  RH WIND       PRES   REMARKS
COLUMBIA       PTCLDY    35  16  45 E6        30.31F
JEFFERSON CITY CLEAR     33  19  56 CALM      30.33F
ROLLA          CLEAR     32  20  61 E5        30.30F WCI  27
SEDALIA        CLOUDY    38  21  50 SE7       30.32F
WHITEMAN AFB   MOCLDY    39  24  55 S7        30.28F
WARRENSBURG    CLOUDY    39  25  56 S5        30.29F
OSAGE BEACH    MOCLDY    39  19  45 NE3       30.31F

$$
MOZ051-052-059>065-060200-
...EAST CENTRAL MISSOURI...

CITY           SKY/WX    TMP DP  RH WIND       PRES   REMARKS
ST LOUIS INTL  CLOUDY    35  17  47 CALM      30.37S
SPIRIT OF STL  CLOUDY    31  22  69 E3        30.36S
ST CHARLES     CLOUDY    31  24  75 NE3       30.37F

$$
MOZ072>076-082>087-097>100-106>115-060200-
...SOUTH CENTRAL AND SOUTHEAST MISSOURI...

CITY           SKY/WX    TMP DP  RH WIND       PRES   REMARKS
CAPE GIRARDEAU CLEAR     39  25  57 S7        30.34S
FARMINGTON     CLOUDY    34  22  61 NE5       30.35R WCI  30
POPLAR BLUFF   CLEAR     42  24  49 S6        30.34S
WEST PLAINS    CLEAR     38  15  39 CALM      30.31F

$$



USA.gov is the U.S. government's official web portal to all federal, state and local government web resources and services.